WA4OPQ-1 Weather Reports


Display with metric or nautical units.
time (UTC)temp
F
wind
direction
speed
MPH
gust
MPH
rain 1hr
in
rain 24hr
in
rain mn
in
humidity
%
barometer
mb
20260902133938 80 312 0.0 0.0 0.00 0.00 0.00 89 1017.3
20260902133058 79 311 0.0 0.0 0.00 0.00 0.00 91 1017.2
20260902132103 77 311 0.0 0.0 0.00 0.00 0.00 91 1017.2
20260902131203 77 311 0.0 0.0 0.00 0.00 0.00 96 1017.0
20260902130213 75 311 0.0 0.0 0.00 0.00 0.00 99 1017.1
20260902125253 74 311 0.0 0.0 0.00 0.00 0.00 99 1017.4
20260902124448 74 311 0.0 0.0 0.00 0.00 0.00 99 1017.2
20260902123508 73 311 0.0 0.0 0.00 0.00 0.00 99 1017.4
20260902122548 72 311 0.0 0.0 0.00 0.00 0.00 99 1017.4
20260902121703 72 311 0.0 0.0 0.00 0.00 0.00 99 1017.5
20260902120813 72 311 0.0 0.0 0.00 0.00 0.00 99 1017.3
20260902115923 72 311 0.0 0.0 0.00 0.00 0.00 99 1017.1
20260902115003 71 311 0.0 0.0 0.00 0.00 0.00 99 1016.9
20260902114128 71 312 0.0 0.0 0.00 0.00 0.00 99 1016.9
20260902113248 71 312 0.0 0.0 0.00 0.00 0.00 99 1016.9
20260902112258 71 312 0.0 0.0 0.00 0.00 0.00 99 1017.0
20260902111348 71 312 0.0 0.0 0.00 0.00 0.00 99 1016.5
20260902110513 71 312 0.0 0.0 0.00 0.00 0.00 99 1016.7
20260902105543 71 312 0.0 0.0 0.00 0.00 0.00 99 1016.7
20260902104740 71 312 0.0 0.0 0.00 0.00 0.00 99 1016.3
20260902103943 71 312 0.0 0.0 0.00 0.00 0.00 99 1016.4
20260902103058 71 312 0.0 0.0 0.00 0.00 0.00 99 1016.4
20260902102243 72 312 0.0 0.0 0.00 0.00 0.00 99 1016.2
20260902101403 72 312 0.0 0.0 0.00 0.00 0.00 99 1016.3
20260902100428 72 312 0.0 0.0 0.00 0.00 0.00 99 1016.1
20260902095608 72 312 0.0 0.0 0.00 0.00 0.00 99 1016.1
20260902094618 72 312 0.0 0.0 0.00 0.00 0.00 99 1015.9
20260902093643 72 312 0.0 0.0 0.00 0.00 0.00 99 1015.9
20260902092823 72 312 0.0 0.0 0.00 0.00 0.00 99 1015.8
20260902091933 72 312 0.0 0.0 0.00 0.00 0.00 99 1015.6
20260902090938 72 312 0.0 0.0 0.00 0.00 0.00 99 1015.4
20260902085943 73 312 0.0 0.0 0.00 0.00 0.00 99 1015.5
20260902085003 73 312 0.0 0.0 0.00 0.00 0.00 99 1015.3
20260902084123 73 312 0.0 0.0 0.00 0.00 0.00 99 1015.5
20260902083158 73 312 0.0 0.0 0.00 0.00 0.00 99 1015.6
20260902082309 73 312 0.0 0.0 0.00 0.00 0.00 99 1015.3
20260902081453 73 312 0.0 0.0 0.00 0.00 0.00 99 1015.3
20260902080513 73 312 0.0 0.0 0.00 0.00 0.00 99 1015.2
20260902075703 73 312 0.0 0.0 0.00 0.00 0.00 99 1015.1
20260902074753 73 312 0.0 0.0 0.00 0.00 0.00 99 1015.1
20260902073913 73 312 0.0 0.0 0.00 0.00 0.00 99 1015.1
20260902073103 74 312 0.0 0.0 0.00 0.00 0.00 99 1015.2
20260902072203 73 312 0.0 0.0 0.00 0.00 0.00 99 1015.2
20260902071308 73 312 0.0 0.0 0.00 0.00 0.00 99 1014.9
20260902070504 73 312 0.0 0.0 0.00 0.00 0.00 99 1015.1
20260902065508 74 312 0.0 0.0 0.00 0.00 0.00 99 1015.2
20260902064558 74 312 0.0 0.0 0.00 0.00 0.00 98 1015.2
20260902063733 74 312 0.0 0.0 0.00 0.00 0.00 98 1015.0
20260902062828 74 312 0.0 0.0 0.00 0.00 0.00 97 1014.9
20260902062008 74 312 0.0 0.0 0.00 0.00 0.00 96 1015.2
20260902061123 74 312 0.0 0.0 0.00 0.00 0.00 96 1015.1
20260902060128 75 312 0.0 0.0 0.00 0.00 0.00 94 1015.1
20260902055253 75 312 0.0 0.0 0.00 0.00 0.00 92 1014.9
20260902054303 76 312 0.0 0.0 0.00 0.00 0.00 92 1014.9
20260902053333 75 312 0.0 0.0 0.00 0.00 0.00 93 1015.2
20260902052529 75 312 0.0 0.0 0.00 0.00 0.00 94 1015.2
20260902051553 75 312 0.0 0.0 0.00 0.00 0.00 92 1014.8
20260902050748 75 312 0.0 0.0 0.00 0.00 0.00 91 1015.1
20260902045913 75 312 0.0 0.0 0.00 0.00 0.00 89 1015.1
20260902044923 76 312 0.0 0.0 0.00 0.00 0.00 87 1014.8
20260902043953 76 312 0.0 0.0 0.00 0.00 0.00 86 1015.0
20260902043113 77 312 0.0 0.0 0.00 0.00 0.00 84 1015.1
20260902042238 77 312 0.0 0.0 0.00 0.00 0.00 84 1014.9
20260902041352 78 312 0.0 0.0 0.00 0.00 0.00 83 1015.2
20260902040410 79 312 0.0 0.0 0.00 0.00 0.00 80 1014.9
20260902035613 79 312 0.0 0.0 0.00 0.00 0.00 77 1015.0
20260902034758 79 312 0.0 0.0 0.00 0.00 0.00 78 1014.9
20260902033838 79 312 0.0 0.0 0.00 0.00 0.00 79 1014.8
20260902032958 79 312 0.0 0.0 0.00 0.00 0.00 79 1014.7
20260902032028 80 312 0.0 0.0 0.00 0.00 0.00 76 1015.0
20260902031135 80 312 0.0 0.0 0.00 0.00 0.00 76 1015.1
20260902030158 80 312 0.0 0.0 0.00 0.00 0.00 76 1014.7
20260902025318 81 312 0.0 0.0 0.00 0.00 0.00 74 1015.1
20260902024318 81 312 0.0 0.0 0.00 0.00 0.00 75 1015.1
20260902023503 82 312 0.0 0.0 0.00 0.00 0.00 73 1015.0
20260902022643 82 312 0.0 0.0 0.00 0.00 0.00 73 1014.9
20260902021656 81 312 0.0 0.0 0.00 0.00 0.00 74 1014.9
20260902020823 81 312 0.0 0.0 0.00 0.00 0.00 74 1014.7
20260902015833 81 312 0.0 0.0 0.00 0.00 0.00 75 1014.7
20260902014943 82 312 0.0 0.0 0.00 0.00 0.00 75 1014.8
20260902014003 82 312 0.0 0.0 0.00 0.00 0.00 72 1014.9
20260902013053 82 312 0.0 0.0 0.00 0.00 0.00 73 1014.4
20260902012208 81 312 0.0 0.0 0.00 0.00 0.00 74 1014.3
20260902011238 81 312 0.0 0.0 0.00 0.00 0.00 76 1014.6
20260902010323 82 312 0.0 0.0 0.00 0.00 0.00 73 1014.2
20260902005333 82 312 0.0 0.0 0.00 0.00 0.00 73 1014.2
20260902004444 82 312 0.0 0.0 0.00 0.00 0.00 73 1014.2
20260902003633 83 312 0.0 0.0 0.00 0.00 0.00 72 1014.2
20260902002700 82 312 0.0 0.0 0.00 0.00 0.00 73 1014.1
20260902001833 83 312 0.0 0.0 0.00 0.00 0.00 74 1014.1
20260902001028 83 312 0.0 0.0 0.00 0.00 0.00 72 1014.1
20260902000215 83 312 0.0 0.0 0.00 0.00 0.00 73 1014.2
20260901235223 84 312 0.0 0.0 0.00 0.00 0.00 74 1014.1
20260901234243 84 312 0.0 0.0 0.00 0.00 0.00 72 1014.3
20260901233428 84 311 0.0 0.0 0.00 0.00 0.00 72 1014.3
20260901232610 85 311 0.0 0.0 0.00 0.00 0.00 72 1014.2
20260901231728 85 311 0.0 0.0 0.00 0.00 0.00 73 1014.4
20260901230753 85 311 0.0 0.0 0.00 0.00 0.00 70 1014.1
20260901225908 86 311 0.0 0.0 0.00 0.00 0.00 69 1014.1
20260901225008 86 311 0.0 0.0 0.00 0.00 0.00 66 1014.1
20260901224123 87 311 0.0 0.0 0.00 0.00 0.00 65 1014.1
20260901223151 88 311 0.0 0.0 0.00 0.00 0.00 64 1013.8
20260901222253 88 311 0.0 0.0 0.00 0.00 0.00 62 1013.8
20260901221358 89 311 0.0 0.0 0.00 0.00 0.00 63 1013.8
20260901220403 89 311 0.0 0.0 0.00 0.00 0.00 62 1013.8
20260901215458 89 311 0.0 0.0 0.00 0.00 0.00 59 1013.8
20260901214538 90 311 0.0 0.0 0.00 0.00 0.00 58 1013.9
20260901213713 90 311 0.0 1.0 0.00 0.00 0.00 58 1013.9
20260901212803 91 311 0.0 1.0 0.00 0.00 0.00 60 1013.9
20260901211828 91 312 0.0 0.0 0.00 0.00 0.00 60 1013.9
20260901210923 91 312 1.0 1.0 0.00 0.00 0.00 55 1013.8
20260901210038 91 311 0.0 0.0 0.00 0.00 0.00 57 1013.9
20260901205118 92 309 1.0 1.0 0.00 0.00 0.00 53 1013.9
20260901204203 94 322 0.0 0.0 0.00 0.00 0.00 54 1013.9
20260901203223 94 321 1.0 1.0 0.00 0.00 0.00 54 1014.3
20260901202223 93 306 0.0 1.0 0.00 0.00 0.00 57 1014.4
20260901201313 93 311 0.0 0.0 0.00 0.00 0.00 60 1014.5
20260901200348 94 302 0.0 0.0 0.00 0.00 0.00 55 1014.1
20260901195353 94 317 0.0 1.0 0.00 0.00 0.00 58 1014.5
20260901194548 95 323 0.0 0.0 0.00 0.00 0.00 60 1014.4
20260901193638 96 305 1.0 1.0 0.00 0.00 0.00 56 1014.4
20260901192818 96 313 0.0 0.0 0.00 0.00 0.00 59 1014.7
20260901191948 95 310 0.0 0.0 0.00 0.00 0.00 60 1014.7
20260901191013 91 308 0.0 0.0 0.00 0.00 0.00 60 1014.8
20260901190208 94 308 0.0 1.0 0.00 0.00 0.00 56 1015.2
20260901185238 92 310 0.0 0.0 0.00 0.00 0.00 60 1015.3
20260901184318 93 327 0.0 0.0 0.00 0.00 0.00 59 1015.3
20260901183433 91 316 0.0 0.0 0.00 0.00 0.00 63 1015.5
20260901182503 92 327 0.0 0.0 0.00 0.00 0.00 66 1015.6
20260901181523 88 315 0.0 0.0 0.00 0.00 0.00 68 1015.9
20260901180648 89 314 1.0 1.0 0.00 0.00 0.00 64 1015.9
20260901175843 93 324 0.0 0.0 0.00 0.00 0.00 57 1015.7
20260901174903 90 317 0.0 0.0 0.00 0.00 0.00 65 1015.8
20260901173953 94 314 2.0 3.0 0.00 0.00 0.00 56 1015.7
20260901173118 93 309 0.0 1.0 0.00 0.00 0.00 66 1015.7
20260901172118 92 316 0.0 1.0 0.00 0.00 0.00 60 1015.9
20260901171208 91 329 0.0 0.0 0.00 0.00 0.00 61 1016.0
20260901170353 92 309 0.0 1.0 0.00 0.00 0.00 67 1016.6
20260901165513 92 308 0.0 1.0 0.00 0.00 0.00 65 1016.5
20260901164623 92 290 2.0 2.0 0.00 0.00 0.00 67 1016.4
20260901163708 92 300 1.0 2.0 0.00 0.00 0.00 63 1016.5
20260901162723 93 298 1.0 2.0 0.00 0.00 0.00 66 1016.9
20260901161848 91 311 0.0 0.0 0.00 0.00 0.00 65 1016.9
20260901160948 92 313 0.0 1.0 0.00 0.00 0.00 65 1016.9
20260901160133 91 316 0.0 1.0 0.00 0.00 0.00 69 1017.0
20260901155223 90 307 0.0 0.0 0.00 0.00 0.00 70 1017.0
20260901154308 88 293 2.0 2.0 0.00 0.00 0.00 70 1017.3
20260901153438 89 287 2.0 2.0 0.00 0.00 0.00 71 1016.8
20260901152538 88 305 1.0 1.0 0.00 0.00 0.00 76 1017.1
20260901151638 87 308 0.0 1.0 0.00 0.00 0.00 72 1017.4
20260901150758 86 292 2.0 3.0 0.00 0.00 0.00 73 1017.2
20260901145943 86 270 2.0 2.0 0.00 0.00 0.00 74 1017.0
20260901145043 85 306 0.0 0.0 0.00 0.00 0.00 77 1017.2
20260901144228 85 306 0.0 0.0 0.00 0.00 0.00 78 1017.2
20260901143308 84 317 0.0 1.0 0.00 0.00 0.00 78 1017.4
20260901142428 84 312 0.0 0.0 0.00 0.00 0.00 79 1017.2
20260901141458 82 308 0.0 0.0 0.00 0.00 0.00 81 1017.3
20260901140526 82 309 0.0 0.0 0.00 0.00 0.00 82 1017.4
20260901135628 81 293 2.0 2.0 0.00 0.00 0.00 84 1017.4